When you browse on this site, cookies collect data to enhance your experience and personalize the content and advertising you see.
Visit our Privacy Policy to learn more. By continuing to use the site, you agree to this use of cookies and data.
  • In Österreich
  • Länderverzeichnis
  • Für 7 Tage
  • Wassertemperatur
  • Satellitenkarten
  • Wetterkarte
  • News
  • Widgets
  • user-avatar
    Anmelden

    Stündliche Wetter Nowiny

    Heute, 21 Mai, Dienstag

    Zeit Temperatur Niederschläge Wind Luftdruck Luftfeuchtigkeit
    00:00 +15°C° 0 mm 2 m/S 749 mmHg 84%
    01:00 +15°C° 0 mm 2 m/S 749 mmHg 86%
    02:00 +14°C° 0 mm 2 m/S 750 mmHg 87%
    03:00 +14°C° 0 mm 2 m/S 750 mmHg 89%
    04:00 +13°C° 0 mm 2 m/S 750 mmHg 90%
    05:00 +15°C° 0 mm 2 m/S 750 mmHg 83%
    06:00 +17°C° 0 mm 2 m/S 750 mmHg 76%
    07:00 +18°C° 0 mm 2 m/S 750 mmHg 70%
    08:00 +20°C° 0 mm 2 m/S 750 mmHg 63%
    09:00 +22°C° 0 mm 3 m/S 750 mmHg 57%
    10:00 +24°C° 0 mm 3 m/S 750 mmHg 50%
    11:00 +25°C° 0 mm 3 m/S 750 mmHg 50%
    12:00 +25°C° 0 mm 3 m/S 750 mmHg 50%
    13:00 +25°C° 0 mm 2 m/S 750 mmHg 50%
    14:00 +25°C° 0.1 mm 2 m/S 750 mmHg 50%
    15:00 +25°C° 0.1 mm 1 m/S 750 mmHg 49%
    16:00 +24°C° 0.1 mm 0 m/S 750 mmHg 49%
    17:00 +24°C° 0.5 mm 1 m/S 750 mmHg 59%
    18:00 +21°C° 0.5 mm 2 m/S 750 mmHg 69%
    19:00 +20°C° 0.5 mm 3 m/S 750 mmHg 79%
    20:00 +19°C° 0 mm 3 m/S 750 mmHg 83%
    21:00 +18°C° 0 mm 3 m/S 750 mmHg 87%
    22:00 +17°C° 0 mm 3 m/S 750 mmHg 92%
    23:00 +16°C° 0.3 mm 3 m/S 750 mmHg 92%

    Morgen, 22 Mai, Mittwoch

    Zeit Temperatur Niederschläge Wind Luftdruck Luftfeuchtigkeit
    00:00 +16°C° 0.3 mm 3 m/S 750 mmHg 93%
    01:00 +16°C° 0.3 mm 3 m/S 750 mmHg 93%
    02:00 +14°C° 0.8 mm 3 m/S 750 mmHg 94%
    03:00 +14°C° 0.8 mm 3 m/S 751 mmHg 94%
    04:00 +14°C° 0.8 mm 3 m/S 751 mmHg 94%
    05:00 +14°C° 0.8 mm 4 m/S 751 mmHg 94%
    06:00 +14°C° 0.8 mm 4 m/S 751 mmHg 93%
    07:00 +15°C° 0.8 mm 4 m/S 752 mmHg 93%
    08:00 +15°C° 0.2 mm 5 m/S 752 mmHg 92%
    09:00 +16°C° 0.2 mm 5 m/S 752 mmHg 90%
    10:00 +16°C° 0.2 mm 5 m/S 752 mmHg 89%
    11:00 +17°C° 0.2 mm 5 m/S 753 mmHg 87%
    12:00 +19°C° 0.2 mm 5 m/S 753 mmHg 85%
    13:00 +19°C° 0.2 mm 6 m/S 753 mmHg 82%
    14:00 +19°C° 0.4 mm 6 m/S 753 mmHg 83%
    15:00 +19°C° 0.4 mm 6 m/S 753 mmHg 83%
    16:00 +17°C° 0.4 mm 6 m/S 754 mmHg 84%
    17:00 +16°C° 0 mm 6 m/S 754 mmHg 85%
    18:00 +16°C° 0 mm 6 m/S 754 mmHg 86%
    19:00 +15°C° 0 mm 6 m/S 755 mmHg 87%
    20:00 +15°C° 0 mm 5 m/S 755 mmHg 87%
    21:00 +14°C° 0 mm 5 m/S 756 mmHg 87%
    22:00 +14°C° 0 mm 5 m/S 756 mmHg 88%
    23:00 +13°C° 0 mm 5 m/S 756 mmHg 88%

    übermorgen, 23 Mai, Donnerstag

    Zeit Temperatur Niederschläge Wind Luftdruck Luftfeuchtigkeit
    00:00 +13°C° 0 mm 6 m/S 757 mmHg 88%
    01:00 +13°C° 0 mm 6 m/S 757 mmHg 87%
    02:00 +11°C° 0.1 mm 6 m/S 757 mmHg 87%
    03:00 +10°C° 0.1 mm 6 m/S 758 mmHg 87%
    04:00 +10°C° 0.1 mm 6 m/S 758 mmHg 87%
    05:00 +10°C° 0 mm 6 m/S 758 mmHg 86%
    06:00 +9°C° 0 mm 5 m/S 759 mmHg 85%
    07:00 +9°C° 0 mm 5 m/S 759 mmHg 84%
    08:00 +10°C° 0 mm 5 m/S 759 mmHg 78%
    09:00 +12°C° 0 mm 4 m/S 760 mmHg 71%
    10:00 +13°C° 0 mm 4 m/S 760 mmHg 65%
    11:00 +15°C° 0 mm 5 m/S 760 mmHg 58%
    12:00 +16°C° 0 mm 5 m/S 760 mmHg 51%
    13:00 +19°C° 0 mm 5 m/S 760 mmHg 45%
    14:00 +19°C° 0 mm 5 m/S 760 mmHg 45%
    15:00 +19°C° 0 mm 5 m/S 759 mmHg 46%
    16:00 +19°C° 0 mm 4 m/S 759 mmHg 46%
    17:00 +18°C° 0 mm 4 m/S 759 mmHg 52%
    18:00 +17°C° 0 mm 3 m/S 759 mmHg 58%
    19:00 +16°C° 0 mm 2 m/S 759 mmHg 63%
    20:00 +14°C° 0 mm 2 m/S 759 mmHg 69%
    21:00 +12°C° 0 mm 1 m/S 760 mmHg 75%
    22:00 +11°C° 0 mm 1 m/S 760 mmHg 80%
    23:00 +10°C° 0 mm 1 m/S 760 mmHg 80%

    24 Mai, Freitag

    Zeit Temperatur Niederschläge Wind Luftdruck Luftfeuchtigkeit
    00:00 +10°C° 0 mm 1 m/S 760 mmHg 80%
    01:00 +10°C° 0 mm 1 m/S 759 mmHg 79%
    02:00 +10°C° 0 mm 1 m/S 759 mmHg 79%
    03:00 +10°C° 0 mm 1 m/S 759 mmHg 79%
    04:00 +10°C° 0 mm 1 m/S 759 mmHg 79%
    05:00 +12°C° 0 mm 2 m/S 759 mmHg 74%
    06:00 +14°C° 0 mm 2 m/S 758 mmHg 69%
    07:00 +15°C° 0 mm 2 m/S 758 mmHg 64%
    08:00 +17°C° 0 mm 2 m/S 758 mmHg 58%
    09:00 +19°C° 0 mm 2 m/S 758 mmHg 52%
    10:00 +20°C° 0 mm 3 m/S 758 mmHg 46%
    11:00 +21°C° 0 mm 3 m/S 757 mmHg 46%
    12:00 +21°C° 0 mm 3 m/S 757 mmHg 46%
    13:00 +21°C° 0 mm 3 m/S 756 mmHg 45%
    14:00 +22°C° 0 mm 3 m/S 756 mmHg 45%
    15:00 +22°C° 0 mm 3 m/S 755 mmHg 44%
    16:00 +22°C° 0 mm 3 m/S 755 mmHg 43%
    17:00 +21°C° 0 mm 3 m/S 755 mmHg 49%
    18:00 +20°C° 0 mm 2 m/S 754 mmHg 55%
    19:00 +20°C° 0 mm 1 m/S 754 mmHg 61%
    20:00 +19°C° 0 mm 1 m/S 754 mmHg 64%
    21:00 +16°C° 0 mm 2 m/S 754 mmHg 67%
    22:00 +15°C° 0 mm 2 m/S 754 mmHg 70%
    23:00 +14°C° 0 mm 2 m/S 754 mmHg 73%

    25 Mai, Samstag

    Zeit Temperatur Niederschläge Wind Luftdruck Luftfeuchtigkeit
    00:00 +14°C° 0 mm 2 m/S 754 mmHg 77%
    01:00 +13°C° 0 mm 2 m/S 753 mmHg 80%
    02:00 +13°C° 0 mm 2 m/S 753 mmHg 82%
    03:00 +13°C° 0 mm 2 m/S 753 mmHg 83%
    04:00 +13°C° 0 mm 2 m/S 753 mmHg 85%
    05:00 +13°C° 0 mm 3 m/S 753 mmHg 81%
    06:00 +14°C° 0 mm 3 m/S 754 mmHg 77%
    07:00 +17°C° 0 mm 3 m/S 754 mmHg 73%
    08:00 +18°C° 0 mm 4 m/S 754 mmHg 67%
    09:00 +19°C° 0 mm 4 m/S 754 mmHg 61%
    10:00 +20°C° 0 mm 4 m/S 754 mmHg 55%
    11:00 +21°C° 0.1 mm 5 m/S 754 mmHg 54%
    12:00 +21°C° 0.1 mm 5 m/S 754 mmHg 53%
    13:00 +21°C° 0.1 mm 5 m/S 754 mmHg 52%
    14:00 +21°C° 0 mm 5 m/S 754 mmHg 52%
    15:00 +21°C° 0 mm 5 m/S 754 mmHg 51%
    16:00 +21°C° 0 mm 5 m/S 754 mmHg 50%
    17:00 +19°C° 0 mm 5 m/S 754 mmHg 56%
    18:00 +18°C° 0 mm 4 m/S 754 mmHg 61%
    19:00 +15°C° 0 mm 4 m/S 754 mmHg 66%
    20:00 +14°C° 0 mm 3 m/S 755 mmHg 72%
    21:00 +13°C° 0 mm 2 m/S 755 mmHg 78%
    22:00 +11°C° 0 mm 1 m/S 755 mmHg 84%
    23:00 +11°C° 0 mm 1 m/S 755 mmHg 84%

    26 Mai, Sonntag

    Zeit Temperatur Niederschläge Wind Luftdruck Luftfeuchtigkeit
    00:00 +11°C° 0 mm 1 m/S 755 mmHg 83%
    01:00 +11°C° 0 mm 1 m/S 755 mmHg 83%
    02:00 +10°C° 0 mm 2 m/S 755 mmHg 83%
    03:00 +10°C° 0 mm 2 m/S 755 mmHg 83%
    04:00 +10°C° 0 mm 3 m/S 754 mmHg 84%
    05:00 +12°C° 0 mm 4 m/S 754 mmHg 81%
    06:00 +13°C° 0 mm 5 m/S 754 mmHg 79%
    07:00 +15°C° 0 mm 5 m/S 754 mmHg 77%
    08:00 +14°C° 0.1 mm 5 m/S 754 mmHg 77%
    09:00 +13°C° 0.1 mm 5 m/S 754 mmHg 77%
    10:00 +11°C° 0.1 mm 6 m/S 754 mmHg 77%
    11:00 +12°C° 0 mm 5 m/S 755 mmHg 72%
    12:00 +13°C° 0 mm 5 m/S 755 mmHg 68%
    13:00 +13°C° 0 mm 5 m/S 755 mmHg 64%
    14:00 +14°C° 0 mm 5 m/S 755 mmHg 63%
    15:00 +14°C° 0 mm 6 m/S 755 mmHg 61%
    16:00 +15°C° 0 mm 6 m/S 755 mmHg 60%
    17:00 +14°C° 0 mm 5 m/S 755 mmHg 62%
    18:00 +14°C° 0 mm 4 m/S 755 mmHg 64%
    19:00 +13°C° 0 mm 3 m/S 755 mmHg 66%
    20:00 +12°C° 0 mm 3 m/S 755 mmHg 72%
    21:00 +12°C° 0 mm 2 m/S 755 mmHg 77%
    22:00 +9°C° 0 mm 2 m/S 756 mmHg 83%
    23:00 +9°C° 0 mm 2 m/S 755 mmHg 82%
    Mehr zeigen